Location: Unspecified
(49.2170°N, 0.0000°E)
Time: 20:35:37
(UTC+00:00)

deb Explorer IX - Visible Passes

Search period start: 20 October 2020 00:00
Search period end: 30 October 2020 00:00
Orbit: 537 x 1106 km, 38.8° (Epoch: 19 October)

Date Brightness Start Highest point End Pass type
(mag) Time Alt. Az. Time Alt. Az. Time Alt. Az.
26 Oct ? 06:01:13 10° SSW 06:05:57 21° SSE 06:11:02 10° ESE visible
27 Oct ? 05:38:05 10° SSW 05:42:39 21° SSE 05:47:36 10° ESE visible
28 Oct ? 05:14:58 10° SSW 05:19:22 20° SSE 05:24:09 10° ESE visible
29 Oct ? 04:51:53 10° SSW 04:56:06 20° SSE 05:00:42 10° ESE visible
